﻿測定場所 (Monitoring sites),日付 (Measurement date),時間 (Measurement time),線量率 最大値 (max) μGy/h,線量率 最小値 (min) μGy/h,線量率 平均値 (average) μGy/h,
足立 (Adachi),2012-06-03,23:01～24:00,0.0680,0.0601,0.0643,
足立 (Adachi),2012-06-03,22:01～23:00,0.0673,0.0604,0.0643,
足立 (Adachi),2012-06-03,21:01～22:00,0.0675,0.0600,0.0642,
足立 (Adachi),2012-06-03,20:01～21:00,0.0687,0.0613,0.0645,
足立 (Adachi),2012-06-03,19:01～20:00,0.0682,0.0604,0.0643,
足立 (Adachi),2012-06-03,18:01～19:00,0.0675,0.0606,0.0645,
足立 (Adachi),2012-06-03,17:01～18:00,0.0674,0.0615,0.0646,
足立 (Adachi),2012-06-03,16:01～17:00,0.0691,0.0589,0.0642,
足立 (Adachi),2012-06-03,15:01～16:00,0.0695,0.0609,0.0642,
足立 (Adachi),2012-06-03,14:01～15:00,0.0680,0.0608,0.0643,
足立 (Adachi),2012-06-03,13:01～14:00,0.0682,0.0605,0.0642,
足立 (Adachi),2012-06-03,12:01～13:00,0.0682,0.0598,0.0642,
足立 (Adachi),2012-06-03,11:01～12:00,0.0691,0.0608,0.0642,
足立 (Adachi),2012-06-03,10:01～11:00,0.0683,0.0602,0.0644,
足立 (Adachi),2012-06-03,09:01～10:00,0.0684,0.0598,0.0645,
足立 (Adachi),2012-06-03,08:01～09:00,0.0676,0.0600,0.0640,
足立 (Adachi),2012-06-03,07:01～08:00,0.0674,0.0603,0.0635,
足立 (Adachi),2012-06-03,06:01～07:00,0.0678,0.0614,0.0643,
足立 (Adachi),2012-06-03,05:01～06:00,0.0689,0.0601,0.0649,
足立 (Adachi),2012-06-03,04:01～05:00,0.0693,0.0622,0.0659,
足立 (Adachi),2012-06-03,03:01～04:00,0.0708,0.0626,0.0662,
足立 (Adachi),2012-06-03,02:01～03:00,0.0722,0.0608,0.0650,
足立 (Adachi),2012-06-03,01:01～02:00,0.0695,0.0624,0.0653,
足立 (Adachi),2012-06-03,00:01～01:00,0.0684,0.0619,0.0649,
足立 (Adachi),2012-06-02,23:01～24:00,0.0683,0.0613,0.0645,
足立 (Adachi),2012-06-02,22:01～23:00,0.0679,0.0611,0.0647,
足立 (Adachi),2012-06-02,21:01～22:00,0.0675,0.0615,0.0646,
足立 (Adachi),2012-06-02,20:01～21:00,0.0675,0.0607,0.0641,
足立 (Adachi),2012-06-02,19:01～20:00,0.0676,0.0622,0.0647,
足立 (Adachi),2012-06-02,18:01～19:00,0.0676,0.0598,0.0643,
足立 (Adachi),2012-06-02,17:01～18:00,0.0684,0.0615,0.0643,
足立 (Adachi),2012-06-02,16:01～17:00,0.0691,0.0610,0.0647,
足立 (Adachi),2012-06-02,15:01～16:00,0.0684,0.0604,0.0644,
足立 (Adachi),2012-06-02,14:01～15:00,0.0671,0.0594,0.0641,
足立 (Adachi),2012-06-02,13:01～14:00,0.0690,0.0604,0.0642,
足立 (Adachi),2012-06-02,12:01～13:00,0.0686,0.0604,0.0641,
足立 (Adachi),2012-06-02,11:01～12:00,0.0672,0.0607,0.0639,
足立 (Adachi),2012-06-02,10:01～11:00,0.0674,0.0611,0.0638,
足立 (Adachi),2012-06-02,09:01～10:00,0.0678,0.0616,0.0641,
足立 (Adachi),2012-06-02,08:01～09:00,0.0680,0.0613,0.0640,
足立 (Adachi),2012-06-02,07:01～08:00,0.0678,0.0610,0.0639,
足立 (Adachi),2012-06-02,06:01～07:00,0.0668,0.0598,0.0640,
足立 (Adachi),2012-06-02,05:01～06:00,0.0673,0.0601,0.0643,
足立 (Adachi),2012-06-02,04:01～05:00,0.0671,0.0610,0.0636,
足立 (Adachi),2012-06-02,03:01～04:00,0.0678,0.0611,0.0639,
足立 (Adachi),2012-06-02,02:01～03:00,0.0689,0.0605,0.0638,
足立 (Adachi),2012-06-02,01:01～02:00,0.0668,0.0589,0.0635,
足立 (Adachi),2012-06-02,00:01～01:00,0.0679,0.0602,0.0634,
足立 (Adachi),2012-06-01,23:01～24:00,0.0680,0.0599,0.0636,
足立 (Adachi),2012-06-01,22:01～23:00,0.0670,0.0597,0.0634,
足立 (Adachi),2012-06-01,21:01～22:00,0.0676,0.0601,0.0637,
足立 (Adachi),2012-06-01,20:01～21:00,0.0667,0.0593,0.0632,
足立 (Adachi),2012-06-01,19:01～20:00,0.0674,0.0593,0.0635,
足立 (Adachi),2012-06-01,18:01～19:00,0.0674,0.0611,0.0641,
足立 (Adachi),2012-06-01,17:01～18:00,0.0683,0.0604,0.0643,
足立 (Adachi),2012-06-01,16:01～17:00,0.0693,0.0622,0.0657,
足立 (Adachi),2012-06-01,15:01～16:00,0.0680,0.0616,0.0648,
足立 (Adachi),2012-06-01,14:01～15:00,0.0686,0.0597,0.0639,
足立 (Adachi),2012-06-01,13:01～14:00,0.0681,0.0600,0.0643,
足立 (Adachi),2012-06-01,12:01～13:00,0.0675,0.0601,0.0639,
足立 (Adachi),2012-06-01,11:01～12:00,0.0687,0.0593,0.0637,
足立 (Adachi),2012-06-01,10:01～11:00,0.0704,0.0598,0.0642,
足立 (Adachi),2012-06-01,09:01～10:00,0.0699,0.0593,0.0637,
足立 (Adachi),2012-06-01,08:01～09:00,0.0672,0.0597,0.0635,
足立 (Adachi),2012-06-01,07:01～08:00,0.0664,0.0593,0.0628,
足立 (Adachi),2012-06-01,06:01～07:00,0.0655,0.0595,0.0625,
足立 (Adachi),2012-06-01,05:01～06:00,0.0663,0.0602,0.0634,
足立 (Adachi),2012-06-01,04:01～05:00,0.0667,0.0595,0.0637,
足立 (Adachi),2012-06-01,03:01～04:00,0.0683,0.0598,0.0638,
足立 (Adachi),2012-06-01,02:01～03:00,0.0667,0.0601,0.0634,
足立 (Adachi),2012-06-01,01:01～02:00,0.0673,0.0609,0.0637,
足立 (Adachi),2012-06-01,00:01～01:00,0.0680,0.0613,0.0641,
足立 (Adachi),2012-05-31,23:01～24:00,0.0678,0.0611,0.0643,
足立 (Adachi),2012-05-31,22:01～23:00,0.0680,0.0609,0.0641,
足立 (Adachi),2012-05-31,21:01～22:00,0.0673,0.0608,0.0640,
足立 (Adachi),2012-05-31,20:01～21:00,0.0682,0.0598,0.0636,
足立 (Adachi),2012-05-31,19:01～20:00,0.0661,0.0609,0.0636,
足立 (Adachi),2012-05-31,18:01～19:00,0.0677,0.0604,0.0637,
足立 (Adachi),2012-05-31,17:01～18:00,0.0668,0.0601,0.0636,
足立 (Adachi),2012-05-31,16:01～17:00,0.0681,0.0606,0.0644,
足立 (Adachi),2012-05-31,15:01～16:00,0.0681,0.0606,0.0640,
足立 (Adachi),2012-05-31,14:01～15:00,0.0702,0.0594,0.0637,
足立 (Adachi),2012-05-31,13:01～14:00,0.0679,0.0593,0.0635,
足立 (Adachi),2012-05-31,12:01～13:00,0.0673,0.0590,0.0633,
足立 (Adachi),2012-05-31,11:01～12:00,0.0665,0.0602,0.0633,
足立 (Adachi),2012-05-31,10:01～11:00,0.0681,0.0595,0.0631,
足立 (Adachi),2012-05-31,09:01～10:00,0.0671,0.0608,0.0638,
足立 (Adachi),2012-05-31,08:01～09:00,0.0672,0.0588,0.0629,
足立 (Adachi),2012-05-31,07:01～08:00,0.0670,0.0599,0.0632,
足立 (Adachi),2012-05-31,06:01～07:00,0.0663,0.0596,0.0629,
足立 (Adachi),2012-05-31,05:01～06:00,0.0660,0.0592,0.0630,
足立 (Adachi),2012-05-31,04:01～05:00,0.0663,0.0592,0.0629,
足立 (Adachi),2012-05-31,03:01～04:00,0.0672,0.0597,0.0632,
足立 (Adachi),2012-05-31,02:01～03:00,0.0655,0.0595,0.0628,
足立 (Adachi),2012-05-31,01:01～02:00,0.0675,0.0580,0.0628,
足立 (Adachi),2012-05-31,00:01～01:00,0.0664,0.0599,0.0633,
足立 (Adachi),2012-05-30,23:01～24:00,0.0669,0.0590,0.0633,
足立 (Adachi),2012-05-30,22:01～23:00,0.0673,0.0598,0.0634,
足立 (Adachi),2012-05-30,21:01～22:00,0.0667,0.0592,0.0627,
足立 (Adachi),2012-05-30,20:01～21:00,0.0665,0.0592,0.0630,
足立 (Adachi),2012-05-30,19:01～20:00,0.0677,0.0582,0.0626,
足立 (Adachi),2012-05-30,18:01～19:00,0.0665,0.0584,0.0619,
足立 (Adachi),2012-05-30,17:01～18:00,0.0657,0.0587,0.0629,
足立 (Adachi),2012-05-30,16:01～17:00,0.0662,0.0606,0.0636,
足立 (Adachi),2012-05-30,15:01～16:00,0.0669,0.0604,0.0631,
足立 (Adachi),2012-05-30,14:01～15:00,0.0672,0.0605,0.0636,
足立 (Adachi),2012-05-30,13:01～14:00,0.0660,0.0581,0.0628,
足立 (Adachi),2012-05-30,12:01～13:00,0.0662,0.0585,0.0628,
足立 (Adachi),2012-05-30,11:01～12:00,0.0669,0.0586,0.0629,
足立 (Adachi),2012-05-30,10:01～11:00,0.0668,0.0590,0.0629,
足立 (Adachi),2012-05-30,09:01～10:00,0.0665,0.0593,0.0628,
足立 (Adachi),2012-05-30,08:01～09:00,0.0656,0.0579,0.0621,
足立 (Adachi),2012-05-30,07:01～08:00,0.0657,0.0581,0.0619,
足立 (Adachi),2012-05-30,06:01～07:00,0.0662,0.0589,0.0625,
足立 (Adachi),2012-05-30,05:01～06:00,0.0672,0.0590,0.0621,
足立 (Adachi),2012-05-30,04:01～05:00,0.0660,0.0589,0.0628,
足立 (Adachi),2012-05-30,03:01～04:00,0.0661,0.0589,0.0626,
足立 (Adachi),2012-05-30,02:01～03:00,0.0669,0.0606,0.0634,
足立 (Adachi),2012-05-30,01:01～02:00,0.0676,0.0609,0.0646,
足立 (Adachi),2012-05-30,00:01～01:00,0.0698,0.0621,0.0656,
足立 (Adachi),2012-05-29,23:01～24:00,0.0692,0.0614,0.0660,
足立 (Adachi),2012-05-29,22:01～23:00,0.0717,0.0630,0.0680,
足立 (Adachi),2012-05-29,21:01～22:00,0.0729,0.0600,0.0663,
足立 (Adachi),2012-05-29,20:01～21:00,0.0679,0.0608,0.0640,
足立 (Adachi),2012-05-29,19:01～20:00,0.0685,0.0603,0.0644,
足立 (Adachi),2012-05-29,18:01～19:00,0.0677,0.0606,0.0636,
足立 (Adachi),2012-05-29,17:01～18:00,0.0663,0.0591,0.0630,
足立 (Adachi),2012-05-29,16:01～17:00,0.0684,0.0591,0.0631,
足立 (Adachi),2012-05-29,15:01～16:00,0.0666,0.0604,0.0631,
足立 (Adachi),2012-05-29,14:01～15:00,0.0662,0.0579,0.0628,
足立 (Adachi),2012-05-29,13:01～14:00,0.0661,0.0597,0.0631,
足立 (Adachi),2012-05-29,12:01～13:00,0.0677,0.0592,0.0630,
足立 (Adachi),2012-05-29,11:01～12:00,0.0671,0.0593,0.0632,
足立 (Adachi),2012-05-29,10:01～11:00,0.0655,0.0599,0.0627,
足立 (Adachi),2012-05-29,09:01～10:00,0.0671,0.0592,0.0627,
足立 (Adachi),2012-05-29,08:01～09:00,0.0657,0.0580,0.0621,
足立 (Adachi),2012-05-29,07:01～08:00,0.0642,0.0588,0.0617,
足立 (Adachi),2012-05-29,06:01～07:00,0.0652,0.0587,0.0621,
足立 (Adachi),2012-05-29,05:01～06:00,0.0671,0.0597,0.0633,
足立 (Adachi),2012-05-29,04:01～05:00,0.0676,0.0592,0.0639,
足立 (Adachi),2012-05-29,03:01～04:00,0.0662,0.0602,0.0632,
足立 (Adachi),2012-05-29,02:01～03:00,0.0667,0.0599,0.0630,
足立 (Adachi),2012-05-29,01:01～02:00,0.0670,0.0601,0.0629,
足立 (Adachi),2012-05-29,00:01～01:00,0.0658,0.0593,0.0627,
足立 (Adachi),2012-05-28,23:01～24:00,0.0686,0.0594,0.0634,
足立 (Adachi),2012-05-28,22:01～23:00,0.0668,0.0591,0.0633,
足立 (Adachi),2012-05-28,21:01～22:00,0.0662,0.0598,0.0632,
足立 (Adachi),2012-05-28,20:01～21:00,0.0675,0.0601,0.0635,
足立 (Adachi),2012-05-28,19:01～20:00,0.0680,0.0600,0.0636,
足立 (Adachi),2012-05-28,18:01～19:00,0.0699,0.0604,0.0645,
足立 (Adachi),2012-05-28,17:01～18:00,0.0765,0.0648,0.0699,
足立 (Adachi),2012-05-28,16:01～17:00,0.0857,0.0739,0.0794,
足立 (Adachi),2012-05-28,15:01～16:00,0.0845,0.0642,0.0740,
足立 (Adachi),2012-05-28,14:01～15:00,0.0690,0.0622,0.0654,
足立 (Adachi),2012-05-28,13:01～14:00,0.0695,0.0590,0.0646,
足立 (Adachi),2012-05-28,12:01～13:00,0.0690,0.0620,0.0652,
足立 (Adachi),2012-05-28,11:01～12:00,0.0683,0.0617,0.0647,
足立 (Adachi),2012-05-28,10:01～11:00,0.0675,0.0599,0.0641,
足立 (Adachi),2012-05-28,09:01～10:00,0.0685,0.0598,0.0650,
足立 (Adachi),2012-05-28,08:01～09:00,0.0694,0.0603,0.0652,
足立 (Adachi),2012-05-28,07:01～08:00,0.0693,0.0615,0.0655,
足立 (Adachi),2012-05-28,06:01～07:00,0.0672,0.0603,0.0639,
足立 (Adachi),2012-05-28,05:01～06:00,0.0705,0.0625,0.0655,
足立 (Adachi),2012-05-28,04:01～05:00,0.0696,0.0619,0.0658,
足立 (Adachi),2012-05-28,03:01～04:00,0.0694,0.0618,0.0650,
足立 (Adachi),2012-05-28,02:01～03:00,0.0682,0.0589,0.0651,
足立 (Adachi),2012-05-28,01:01～02:00,0.0686,0.0621,0.0653,
足立 (Adachi),2012-05-28,00:01～01:00,0.0692,0.0625,0.0659,
